Theta_e
330 328 328 326 323 326 321 315 303 307 307 299 298 300 298 303 302 301 302 303 301 305 307 306 305 307 304 304 307 308 307 305 305 301 304 320 334 337 340 341 341 342 344 347 347 348 349 347 346 348 349 350 349 349 349 350 349 349 349 349 348 349 349 348 349 349 349 348 347 347 346 346 346 346 346 345 342 340 340 340 340 340 339 339 339 339 338 338 340 341 343 345 345 344 343 342 341
325 326 325 327 323 321 312 310 306 302 302 297 299 300 300 301 301 302 302 303 304 309 309 307 308 313 313 314 314 313 311 318 313 321 323 328 335 338 340 341 341 342 345 347 348 347 348 349 346 348 349 348 349 349 349 349 349 349 349 349 348 348 348 349 348 348 349 347 347 347 346 345 345 345 345 343 340 339 339 339 339 338 338 338 338 338 338 338 340 340 342 345 344 344 342 342 342
325 324 323 323 319 318 313 312 301 298 297 294 297 300 301 300 301 303 303 304 310 311 312 310 310 310 308 308 307 307 310 320 321 321 325 332 332 335 341 342 344 345 345 347 348 348 350 348 344 347 349 349 349 349 349 348 348 348 348 348 348 348 349 348 349 349 348 346 347 347 345 344 344 344 344 342 339 338 339 339 338 338 338 338 338 338 338 339 339 341 343 343 343 342 341 341 341
326 323 324 323 313 316 309 307 303 299 297 297 297 301 301 302 302 303 305 310 310 308 307 307 307 312 308 305 307 312 314 316 320 324 323 329 332 337 340 340 344 346 347 347 348 349 350 347 343 348 349 349 348 348 349 348 348 348 348 347 347 349 349 348 348 348 348 347 347 346 345 345 344 344 343 340 338 337 338 338 338 337 337 337 337 338 339 339 339 340 340 342 343 342 341 340 339
326 321 325 322 318 309 309 304 302 300 296 298 297 301 301 303 303 304 307 310 308 305 305 308 309 315 315 312 310 309 312 318 320 324 328 332 334 338 340 341 344 345 346 347 348 349 351 342 343 347 349 349 349 348 348 347 347 347 348 348 348 347 347 347 347 348 347 347 346 345 345 344 344 343 342 339 337 336 337 338 337 336 336 336 337 337 339 340 341 341 341 341 342 342 341 340 340
325 321 323 323 311 311 308 302 300 299 301 302 299 300 302 304 303 306 307 308 309 307 305 307 307 308 310 313 316 312 317 313 323 325 329 332 335 338 338 342 344 345 345 346 348 350 351 340 344 345 349 349 348 348 348 347 347 347 347 348 348 348 347 347 347 347 347 347 346 345 345 344 344 342 340 337 336 336 337 337 337 336 336 335 336 339 339 339 342 343 343 342 342 342 340 339 339
321 318 318 315 311 313 304 301 299 300 300 300 302 301 303 303 305 306 306 306 306 304 302 307 307 309 306 313 314 321 323 323 324 327 333 335 336 337 337 341 344 344 345 346 348 349 352 340 345 348 349 349 349 348 347 347 347 347 347 347 347 347 347 347 347 347 347 346 345 345 344 344 343 342 339 336 335 335 337 337 337 336 335 335 335 337 339 339 340 340 340 339 341 341 338 337 338
319 318 314 310 305 308 302 301 300 301 299 299 300 302 304 304 305 306 305 305 303 304 306 309 308 305 306 311 308 319 321 322 327 328 328 331 337 338 338 341 344 345 346 347 348 348 347 339 344 346 348 349 349 349 347 347 347 347 347 346 346 347 347 347 347 347 347 346 345 345 344 343 343 341 338 334 333 335 337 337 337 336 336 335 335 335 338 339 339 340 340 341 340 338 337 337 337
317 314 310 313 303 304 301 300 301 299 299 299 301 301 305 303 304 306 304 304 302 303 308 309 306 302 306 308 310 317 319 321 321 324 329 334 336 339 338 343 343 344 346 346 348 349 350 338 340 344 346 348 349 348 347 346 346 346 346 345 347 346 347 347 347 347 346 345 345 344 344 343 343 342 338 334 333 334 336 336 336 335 335 335 334 336 336 337 337 338 339 338 337 336 335 336 335
313 313 307 308 307 300 300 300 299 300 300 301 301 302 302 302 301 303 305 303 304 304 307 306 305 303 306 306 308 314 318 320 320 329 332 334 337 339 341 344 345 344 345 347 347 347 347 341 335 338 342 347 348 348 349 348 346 346 346 346 345 347 347 346 347 346 346 345 345 344 343 342 342 341 339 334 333 334 336 336 336 335 335 335 334 335 335 335 335 336 336 334 334 333 334 333 332
309 310 313 306 302 299 299 299 300 300 300 301 301 302 303 303 302 302 303 303 303 305 307 305 304 305 307 307 311 314 313 314 325 328 332 334 338 339 342 345 346 346 345 347 347 346 346 346 337 334 339 339 345 347 347 348 348 347 346 347 346 347 346 346 346 346 346 345 344 343 342 342 342 341 338 334 333 334 336 336 336 335 335 335 334 334 333 333 333 332 331 331 331 331 331 330 330
307 308 310 302 300 300 300 299 299 301 300 301 301 303 302 303 302 301 301 301 303 303 306 306 305 309 305 306 310 313 314 319 329 331 332 335 337 339 341 344 345 345 347 347 348 346 346 346 345 340 335 335 339 343 345 346 347 348 347 348 347 346 346 345 346 346 345 345 344 343 342 342 342 340 338 335 333 334 334 334 335 334 335 335 334 334 333 332 330 328 328 327 328 329 329 329 328
310 310 305 302 301 300 300 299 300 301 301 300 302 301 302 302 302 303 303 303 304 304 305 308 309 307 303 305 308 311 316 324 328 330 332 334 335 337 340 340 342 344 345 345 344 345 345 343 344 344 338 330 333 334 337 340 344 346 346 347 346 346 346 346 345 345 345 345 344 343 342 342 341 339 337 334 333 333 332 331 331 333 334 335 335 334 333 330 327 325 325 325 326 327 327 327 327
312 311 308 301 297 300 300 300 299 298 298 302 302 300 301 302 303 303 304 302 303 304 304 304 307 307 305 306 306 309 316 325 328 329 330 333 335 336 336 337 338 340 340 340 338 339 341 343 344 344 344 343 345 337 331 334 338 343 344 344 344 345 345 346 346 345 344 344 343 342 341 341 341 338 336 334 332 331 331 331 329 330 332 333 333 332 330 326 324 323 323 324 325 325 326 326 326
311 306 307 303 299 299 299 298 299 298 300 302 301 300 299 301 300 301 304 303 304 303 304 304 308 304 303 304 305 308 317 325 326 326 327 331 332 332 333 335 334 335 335 331 334 335 336 338 340 343 344 345 345 344 344 341 330 338 340 341 342 343 343 343 343 341 341 342 340 338 337 335 334 334 334 334 335 332 331 331 330 329 330 331 331 329 327 326 324 324 323 324 324 324 325 325 324
311 311 307 302 299 299 299 299 298 299 300 302 299 301 301 301 300 301 303 302 304 304 304 304 305 304 305 306 305 307 321 325 325 324 328 330 330 330 331 330 332 331 330 328 328 329 332 334 337 336 339 343 344 344 342 342 332 330 336 337 339 340 340 340 338 336 335 335 334 333 331 334 330 332 326 331 330 332 329 329 330 328 327 327 328 328 327 326 325 325 324 324 323 324 324 323 322
308 313 302 302 298 297 300 299 299 297 302 302 298 300 301 301 300 302 301 302 303 304 303 305 306 305 305 305 307 308 316 323 320 323 328 328 329 329 329 328 332 330 325 326 327 327 328 330 335 336 334 338 340 342 343 342 339 328 330 330 332 336 336 335 333 326 325 324 328 325 329 339 337 335 333 332 324 332 323 325 329 328 325 324 323 323 324 324 324 323 323 322 321 320 318 318 318
310 304 303 299 302 299 303 301 301 303 302 301 299 301 303 301 301 303 303 303 303 303 303 305 304 304 307 306 308 310 319 321 319 323 326 328 329 326 327 328 331 330 329 327 325 325 325 325 332 333 337 337 336 338 342 342 342 335 342 341 343 338 330 327 334 341 334 340 324 335 343 341 339 338 333 330 332 331 329 323 326 327 324 324 323 323 323 323 322 322 321 320 318 317 316 316 314
306 302 302 299 301 303 304 304 303 302 303 303 302 301 302 303 303 303 302 303 302 302 304 304 305 307 307 306 309 309 319 321 321 324 326 326 328 326 327 328 330 330 329 329 328 325 326 326 327 330 335 337 337 337 338 342 342 341 342 342 342 333 335 339 344 340 342 341 341 343 339 341 340 337 333 333 332 323 329 323 326 326 325 324 325 324 323 323 322 321 319 318 316 315 316 316 315
301 305 299 300 306 302 301 302 302 301 300 302 301 300 300 301 303 304 301 303 301 302 303 303 303 305 306 307 309 310 318 320 321 324 326 326 327 328 328 328 330 331 330 330 328 323 323 324 326 327 331 335 338 336 336 338 342 343 342 344 344 343 342 342 343 342 341 341 342 341 341 342 341 339 328 325 326 331 328 321 322 322 323 323 322 322 321 320 319 318 317 315 315 315 314 313 313
301 301 300 301 299 302 300 300 300 299 299 302 302 299 300 301 302 303 302 301 302 304 306 306 305 306 308 309 309 312 316 318 320 322 324 326 327 329 329 328 328 329 328 322 321 321 321 321 323 326 328 333 336 336 335 334 337 341 342 343 343 343 341 341 341 341 339 341 341 340 342 341 340 336 334 331 330 330 330 328 326 323 322 321 318 318 316 316 316 317 316 315 314 314 313 311 310
304 300 299 299 298 302 299 300 298 299 296 301 300 300 301 301 301 302 302 301 302 305 307 308 308 308 308 308 311 313 315 317 318 320 323 325 326 326 328 330 325 321 318 322 323 320 320 319 320 323 326 331 334 335 336 335 332 338 340 341 342 342 341 340 341 341 339 340 341 340 339 339 340 336 334 334 332 332 330 328 326 321 320 320 320 318 318 318 318 317 316 314 312 312 310 309 307
300 299 299 299 299 301 299 299 298 297 300 301 300 303 301 301 302 302 302 303 305 303 303 305 305 304 306 310 311 312 315 316 317 318 322 324 326 326 326 325 324 322 319 324 323 322 320 319 321 323 325 329 332 334 334 335 336 337 340 341 341 341 341 340 339 340 340 342 341 339 338 337 337 337 334 333 332 332 331 329 324 320 320 320 320 319 318 318 317 316 314 312 311 309 307 306 305
303 300 299 299 298 300 297 299 295 297 299 301 301 301 302 300 300 300 299 304 306 303 302 304 304 303 303 308 310 312 314 316 317 319 322 324 326 326 326 324 323 324 322 322 320 319 320 320 322 324 326 328 331 332 332 334 337 338 338 340 340 339 340 339 339 340 340 339 339 338 336 338 337 336 335 333 332 332 329 327 325 322 322 321 321 320 319 317 316 314 313 312 309 308 306 305 305
302 300 299 298 298 299 298 297 297 296 298 298 299 300 301 301 301 298 301 304 306 305 304 304 303 303 303 307 309 311 314 316 317 318 321 322 323 324 323 324 322 321 322 322 321 320 320 320 320 322 324 325 329 330 331 333 336 338 338 338 340 334 339 339 339 338 337 339 339 338 337 337 337 335 333 333 332 331 330 326 325 322 321 321 321 320 319 316 314 312 310 309 308 307 306 304 303
302 300 300 299 300 299 298 297 297 298 300 299 300 300 300 299 299 299 303 306 303 304 303 305 304 304 305 306 308 310 313 314 316 316 318 318 317 316 319 319 320 319 323 323 320 321 320 319 319 320 322 324 326 328 330 332 334 335 336 337 339 333 339 338 338 338 338 338 338 338 338 338 336 335 332 332 331 329 328 326 325 324 320 320 320 319 318 315 312 310 309 309 308 306 304 303 302
300 300 301 301 299 299 298 300 299 298 301 299 300 300 300 299 299 301 304 303 300 303 304 303 304 305 306 307 308 309 311 313 314 316 316 315 314 315 317 317 318 321 321 320 320 320 319 318 319 319 320 321 324 325 328 330 333 333 335 336 335 336 339 338 337 338 338 336 336 338 338 338 336 334 333 331 331 328 327 325 324 326 323 322 320 319 319 314 311 309 309 306 305 303 302 302 301
300 300 300 301 300 300 300 300 300 301 300 298 301 299 299 299 299 301 304 301 301 303 304 304 304 306 307 307 307 308 308 311 314 314 313 313 314 314 315 316 316 318 317 318 319 318 317 317 317 318 318 320 321 323 326 329 331 333 334 334 334 335 334 335 336 336 334 336 336 337 336 337 336 335 334 331 329 328 326 324 324 323 323 323 320 319 316 313 311 309 307 305 303 302 301 300 301
299 299 300 300 301 301 300 301 300 298 301 299 300 300 299 298 299 304 300 301 301 302 303 304 304 305 307 307 306 307 308 309 310 310 313 316 317 315 315 316 316 316 317 317 316 316 315 316 316 316 317 318 319 320 324 328 330 331 332 332 333 333 330 330 331 331 331 333 334 335 334 335 334 335 333 332 329 327 325 323 322 321 321 322 319 316 313 310 307 305 305 304 302 301 300 299 300
299 301 300 299 300 299 299 298 298 299 300 298 299 294 299 301 303 305 301 301 301 301 303 304 305 305 306 306 305 306 308 308 308 309 312 314 315 315 315 315 315 316 316 316 316 314 315 316 316 317 318 318 319 320 322 326 327 329 328 327 328 329 328 327 325 325 325 326 330 332 331 331 330 331 332 329 326 324 323 321 319 319 318 317 316 313 310 308 307 306 304 303 302 301 299 298 297
300 298 300 298 296 297 299 300 298 300 299 298 300 295 298 302 304 302 299 299 301 302 304 305 305 304 305 305 305 306 307 308 308 309 310 311 312 313 314 314 313 314 315 315 314 315 314 315 316 315 317 319 319 319 321 324 326 327 325 323 325 327 323 321 320 320 323 326 328 329 331 330 331 331 330 327 323 321 319 317 316 316 316 315 313 313 310 308 307 305 304 301 301 299 298 297 296
298 296 296 297 295 298 299 298 298 299 298 299 300 295 298 302 305 300 299 298 299 301 303 304 304 304 304 304 304 305 306 308 308 308 308 309 310 310 311 312 312 312 314 315 315 315 314 315 315 316 317 318 318 318 320 322 323 323 321 315 318 322 320 318 317 317 319 320 324 327 328 328 327 328 327 326 322 320 318 316 315 315 314 313 312 311 309 307 306 305 304 302 298 296 295 294 295
298 296 296 294 295 297 297 297 296 296 297 299 299 297 299 300 302 300 298 299 299 300 302 304 304 303 303 303 304 304 305 306 307 306 307 308 309 309 309 311 311 312 313 314 314 314 313 314 314 315 316 316 317 315 315 315 317 317 316 315 314 315 317 316 315 314 315 317 318 322 324 324 325 324 324 325 323 318 314 311 311 312 311 311 310 310 309 308 307 304 303 302 298 294 293 293 293
296 296 295 296 294 296 294 296 296 298 297 298 299 296 298 301 302 302 298 299 299 300 302 304 304 304 304 304 304 303 304 305 306 307 306 307 308 308 309 309 311 312 313 314 314 313 313 314 314 315 316 316 317 314 312 312 312 311 311 310 309 310 311 312 312 313 313 313 315 316 318 320 318 320 321 321 318 315 312 309 308 309 310 310 309 309 308 307 305 303 299 297 295 293 291 291 291
294 294 294 294 293 293 295 296 296 296 296 296 298 297 298 301 303 304 305 301 300 300 302 303 304 304 304 304 303 303 304 304 305 308 308 306 307 307 308 309 310 311 312 313 313 313 313 313 313 313 314 313 312 312 310 308 307 308 307 306 306 306 307 309 310 310 309 310 312 313 314 314 315 316 317 314 312 311 310 307 307 308 309 310 310 308 306 305 304 301 298 295 295 293 291 291 291
295 296 295 295 293 295 294 297 296 296 297 296 297 296 298 301 302 304 304 303 301 301 302 302 302 303 303 303 304 305 305 304 307 307 308 307 307 307 307 308 309 311 311 312 312 312 312 313 312 312 312 312 310 310 309 308 308 307 307 306 305 305 306 306 307 307 307 308 308 309 310 312 310 310 311 312 310 309 308 308 307 307 308 308 307 305 303 302 300 297 295 293 291 291 292 292 292
297 297 296 294 294 295 296 295 295 295 296 297 298 298 298 299 301 303 304 303 299 300 300 301 302 303 303 304 304 305 305 306 311 308 307 306 306 306 306 307 309 310 311 312 311 311 311 311 310 310 309 309 309 307 307 307 307 307 307 308 306 304 303 303 304 304 305 306 306 308 308 309 308 309 308 307 308 305 305 306 306 306 307 307 306 305 304 301 299 297 294 293 291 290 291 293 293
296 296 295 294 294 293 297 296 294 296 295 297 297 296 298 299 301 302 304 302 301 301 301 302 302 303 304 305 305 306 307 308 308 305 304 305 305 305 306 307 307 308 310 311 311 310 311 311 310 310 307 307 309 308 308 309 309 309 308 306 303 301 301 301 302 302 303 303 303 303 305 306 306 305 304 304 303 304 303 303 304 305 307 308 306 303 301 299 297 295 293 291 293 292 291 294 294
296 295 295 294 295 297 297 294 294 295 295 295 297 295 296 299 300 302 302 302 303 304 304 304 304 305 305 305 305 306 307 306 307 305 305 303 305 304 305 306 308 309 310 311 311 310 310 310 310 310 308 307 307 308 309 309 309 306 306 303 301 298 297 299 300 301 301 301 302 301 301 303 304 304 304 303 303 302 302 303 304 304 305 306 303 301 299 298 296 295 294 293 292 294 294 296 296
296 295 293 293 296 292 292 294 294 294 295 295 296 293 296 299 300 301 303 303 303 304 304 304 304 303 304 305 306 307 306 307 306 305 304 302 303 303 304 305 307 309 310 310 310 309 309 309 310 309 307 307 307 308 306 304 304 302 300 299 298 298 297 296 296 297 297 298 298 298 298 300 301 303 303 303 303 303 302 302 301 301 301 303 303 300 299 298 297 296 296 296 296 292 292 292 296
296 297 296 295 294 295 293 294 295 294 294 292 293 294 295 298 297 300 302 300 300 301 302 303 303 304 305 306 307 307 305 306 307 306 305 302 301 302 303 305 307 308 309 310 309 309 309 309 309 309 307 306 307 306 302 300 300 299 297 296 297 296 296 296 296 296 296 297 296 297 297 297 297 298 299 300 300 300 300 300 300 300 301 302 302 302 301 299 298 298 298 297 296 294 292 294 294
295 296 297 296 296 295 293 294 294 294 294 293 293 289 292 297 298 298 302 301 301 303 302 303 304 305 304 302 303 305 306 306 306 306 306 303 302 303 303 304 306 307 309 310 310 310 309 309 309 308 307 306 305 303 300 300 299 298 297 297 296 296 295 296 296 296 295 295 296 295 295 295 295 296 296 297 297 298 299 299 300 300 301 302 303 303 302 301 300 300 299 298 297 298 296 295 293
293 294 297 297 296 295 295 293 294 290 289 293 292 288 286 295 295 298 300 300 300 303 303 303 305 306 305 305 305 305 304 304 305 305 305 304 303 303 303 304 305 307 309 310 309 309 309 309 309 308 306 305 303 300 300 299 299 300 302 302 302 301 300 300 302 300 297 296 294 295 294 294 294 294 295 296 297 298 300 300 301 302 303 304 304 303 302 301 301 301 300 300 300 299 298 296 294
292 293 292 295 295 294 295 294 294 293 294 296 291 294 288 288 295 298 299 299 299 300 302 303 305 305 306 306 306 306 306 305 305 304 304 304 303 303 302 303 305 306 309 309 308 308 308 308 308 307 306 303 301 299 299 300 300 300 303 305 306 306 305 303 302 299 295 292 292 292 292 292 292 293 293 294 296 297 299 300 301 302 303 303 302 303 302 301 301 301 301 302 301 299 300 297 294
294 291 294 295 295 297 295 295 294 293 290 289 290 296 288 289 295 297 297 296 298 300 302 304 306 307 306 306 305 305 305 305 304 304 304 303 303 302 303 303 305 307 308 308 308 308 308 308 308 307 305 301 300 299 299 301 302 303 305 306 305 305 303 298 296 295 293 291 290 290 291 291 291 291 292 292 294 296 296 298 300 301 301 300 300 302 301 300 300 299 299 298 298 299 300 298 294
291 292 294 294 295 295 296 294 294 292 289 286 289 293 287 289 295 295 295 296 297 300 302 304 306 306 307 305 304 303 302 302 302 302 303 303 303 303 303 304 304 306 308 309 308 308 307 307 306 305 304 301 299 298 299 300 303 303 305 305 304 297 294 294 295 293 291 291 289 289 289 290 290 290 290 291 292 294 296 297 298 299 299 298 298 299 299 298 298 298 298 298 299 299 298 296 295
295 296 297 296 295 295 294 294 293 291 285 288 291 293 291 285 293 295 294 298 300 302 302 303 305 306 304 302 301 302 301 301 300 300 300 301 302 302 302 302 304 306 308 308 307 307 307 306 306 304 303 301 299 298 299 299 301 301 302 302 302 297 295 294 293 291 290 290 289 288 288 289 290 290 290 291 293 293 294 296 297 297 297 296 296 297 297 297 297 297 297 298 298 297 296 296 295
297 297 296 295 292 293 292 290 291 285 284 289 288 293 293 284 290 296 300 298 296 300 302 303 304 306 306 303 301 300 299 300 299 299 299 299 299 299 301 301 303 305 306 306 306 306 306 306 305 304 302 299 298 298 298 298 299 300 300 301 300 297 294 293 293 292 291 290 290 289 290 289 289 290 290 290 291 292 293 294 295 295 295 295 296 296 296 296 296 296 295 296 296 296 295 294 294
296 296 294 288 286 286 284 287 283 284 284 287 288 290 287 287 292 297 298 299 300 300 300 303 305 305 306 302 301 300 300 299 300 300 299 299 299 299 299 300 302 304 305 305 305 305 305 305 304 303 300 298 298 297 297 298 297 298 300 300 300 297 295 293 294 293 293 292 291 290 290 289 290 290 290 290 291 292 292 293 293 294 294 294 295 295 295 295 294 294 294 295 294 293 293 293 292
294 293 291 287 283 282 279 283 282 282 286 287 287 291 286 292 295 299 298 300 302 302 302 303 303 304 305 305 301 299 300 300 301 300 300 300 300 300 300 301 302 304 304 305 305 304 304 304 304 303 302 299 298 297 297 297 297 298 299 299 296 295 294 293 294 293 293 293 293 291 290 291 290 291 290 291 291 291 292 293 293 293 294 294 294 294 293 293 293 293 293 293 292 292 293 293 293
293 299 294 290 288 284 279 282 280 283 286 284 287 285 285 287 294 298 300 302 303 303 303 303 303 303 303 303 302 299 299 300 300 299 300 300 300 300 300 301 303 304 304 304 304 304 304 303 303 302 301 298 297 296 296 296 297 297 297 297 296 295 294 295 297 295 294 292 292 292 292 292 291 292 291 292 291 291 292 292 292 292 292 292 292 292 292 292 292 292 292 291 290 291 291 291 290
296 296 296 289 288 292 284 286 285 283 284 285 283 285 292 293 298 298 298 298 299 299 300 300 300 302 304 304 302 300 299 301 301 299 299 299 299 299 300 301 303 304 304 304 304 304 303 303 303 303 301 298 297 296 296 296 296 296 295 295 295 294 295 296 298 296 293 293 292 292 292 292 293 292 292 291 290 291 291 291 291 291 290 290 290 290 290 290 291 290 289 289 288 290 289 289 288
293 293 289 291 294 293 285 281 281 281 283 281 289 288 291 296 296 298 300 298 299 298 298 299 300 302 303 304 306 302 300 302 302 301 300 299 298 298 299 301 302 303 304 304 304 304 303 303 303 302 302 299 297 296 296 296 296 295 294 294 294 293 294 294 295 295 294 292 291 291 292 292 293 292 291 290 290 290 290 290 289 289 289 289 289 289 289 289 290 289 288 288 287 288 288 287 287
293 287 292 293 297 296 290 283 284 283 281 283 286 285 288 289 286 295 296 296 298 299 299 300 301 303 302 303 304 302 302 302 303 301 300 299 299 298 299 300 302 303 304 304 304 304 304 303 303 302 302 300 298 297 296 296 295 295 294 292 293 293 293 293 292 293 292 291 289 290 291 291 291 291 290 290 289 289 289 288 288 288 288 288 288 288 288 288 288 288 287 287 286 287 286 286 286
295 293 302 292 286 285 290 286 279 280 279 282 287 287 287 289 290 295 295 295 297 299 301 300 300 301 302 303 302 302 302 301 300 299 298 298 298 298 298 299 301 303 304 304 304 303 303 303 303 303 302 302 300 299 297 296 296 295 294 292 292 292 292 292 291 290 289 289 288 289 289 290 290 289 288 288 288 288 288 287 287 287 287 287 287 287 287 287 287 286 285 285 285 286 285 284 284
296 296 293 296 293 290 286 286 287 286 282 280 283 287 285 296 294 296 297 299 300 300 301 301 301 302 303 304 304 301 301 301 302 301 300 299 298 298 298 298 299 302 303 304 303 303 302 302 302 301 301 301 300 298 296 295 296 295 294 292 291 291 291 290 290 289 288 288 288 288 289 289 288 288 288 288 288 287 287 286 286 286 286 286 286 286 286 286 286 285 285 284 284 284 283 283 282
290 292 291 291 289 293 293 291 286 285 283 282 282 281 288 296 299 298 299 300 301 301 301 303 303 303 303 304 304 303 303 303 302 301 301 299 298 297 297 298 299 301 303 303 303 302 302 302 301 300 299 299 299 297 296 296 294 293 293 291 290 290 289 288 287 287 287 287 287 288 288 288 288 287 288 287 287 287 286 286 286 285 285 285 285 284 285 285 285 284 284 283 283 283 282 281 281
293 292 290 292 289 287 284 283 288 285 286 282 282 282 289 299 296 300 300 302 302 302 302 303 303 303 302 301 301 303 303 302 302 300 299 298 297 296 296 297 298 300 301 301 302 302 301 301 301 301 300 299 298 297 296 295 294 293 291 291 290 290 289 288 287 286 287 287 287 287 288 287 287 287 287 287 287 286 286 285 285 285 284 284 284 284 284 284 284 283 282 282 282 282 281 281 280
Wind_Speed
4 3 1 0 2 2 3 3 4 3 3 2 2 3 4 1 1 2 3 4 4 4 2 3 2 5 3 2 4 4 2 4 4 4 4 3 2 3 4 3 3 4 7 6 6 7 6 4 1 4 7 9 9 10 10 9 10 11 10 10 10 11 12 12 13 13 14 14 14 14 13 13 14 14 15 15 16 16 16 16 16 15 15 15 15 15 14 15 15 16 16 18 18 18 18 17 18
2 2 1 2 0 1 2 3 1 1 1 2 2 1 5 3 2 5 5 4 4 3 3 3 4 3 3 3 3 0 3 4 5 4 3 3 4 4 3 3 4 7 7 7 7 7 7 7 1 1 7 9 9 10 10 9 9 11 11 11 10 10 12 12 12 13 14 14 14 14 13 13 14 14 15 15 16 16 16 16 15 15 16 16 16 16 15 15 16 16 16 17 19 18 18 18 18
2 3 3 1 2 1 4 2 2 2 1 1 3 1 3 5 4 5 3 1 6 6 5 6 4 1 2 2 4 3 2 2 3 3 3 4 8 5 4 5 5 8 8 6 6 6 5 6 2 3 8 9 9 10 9 9 9 10 10 11 12 12 12 12 12 13 14 13 13 14 13 13 13 14 15 16 16 16 16 16 15 14 15 16 16 16 16 16 16 17 17 17 19 19 19 19 18
1 3 2 1 2 2 1 1 1 1 1 3 1 4 5 4 5 5 4 8 8 5 3 7 5 2 4 6 1 1 2 3 1 4 6 6 4 5 4 4 4 6 5 6 6 6 5 7 1 5 7 10 10 9 8 8 9 9 9 10 11 12 11 12 12 13 13 13 13 13 13 13 13 14 15 16 16 17 16 16 15 14 15 16 17 17 16 16 16 16 17 18 19 19 19 18 18
1 2 2 2 3 3 1 2 1 1 1 1 2 5 5 4 6 6 8 7 5 1 0 3 2 2 3 3 2 3 3 5 3 2 2 4 2 3 3 4 5 7 6 7 7 6 5 6 3 5 7 10 10 9 9 8 8 8 8 10 11 11 12 12 12 13 13 13 13 13 13 14 13 14 15 16 16 16 16 15 15 15 15 16 16 17 17 18 18 18 18 18 19 19 19 19 19
1 0 3 2 1 2 3 3 2 1 4 1 1 5 6 5 7 9 9 6 3 3 2 3 3 4 3 1 2 1 1 4 4 3 1 6 2 1 2 5 7 7 7 7 7 6 6 5 3 3 8 9 10 10 8 8 8 8 8 9 10 11 11 12 12 13 13 13 13 13 13 13 13 14 15 16 16 16 16 15 15 16 16 16 16 17 17 17 18 19 19 19 19 20 20 20 20
1 1 2 3 4 2 2 1 1 0 4 3 2 5 6 6 7 10 8 5 3 2 2 2 1 2 3 3 3 2 2 2 3 3 1 3 2 0 1 7 8 9 8 7 7 6 7 6 3 5 6 7 9 8 8 9 8 8 7 9 10 10 11 11 12 12 13 13 13 13 13 13 13 14 14 15 15 15 16 16 16 16 16 16 15 17 17 16 17 18 18 19 19 20 20 19 18
1 3 2 2 3 2 2 1 2 1 3 2 3 1 5 7 6 8 9 7 5 4 5 2 3 5 4 1 1 4 1 2 3 2 1 1 1 3 3 7 9 10 9 7 6 6 7 4 2 3 5 8 7 7 9 9 8 7 7 8 9 10 10 11 11 12 12 13 13 14 13 13 13 14 14 14 15 15 15 16 16 16 16 16 16 16 17 18 18 18 18 19 21 20 18 18 19
3 2 1 2 2 1 1 0 2 1 1 2 2 3 4 2 5 6 8 4 2 3 3 6 2 4 5 5 1 3 2 1 1 1 1 0 1 3 3 7 9 9 9 8 7 6 7 5 2 2 5 6 7 7 9 10 9 9 7 8 8 9 10 10 11 12 12 12 12 13 13 12 13 13 14 14 15 16 16 15 15 16 16 17 17 16 16 16 17 18 19 19 19 19 18 18 17
2 3 3 2 0 1 1 2 3 2 1 2 1 3 5 3 5 4 6 5 3 2 2 2 1 3 4 3 4 4 2 4 1 1 1 1 2 4 6 8 9 9 9 8 6 5 5 5 5 4 1 5 5 5 6 8 9 8 7 8 8 8 10 10 11 12 12 12 12 13 13 12 12 13 14 14 15 15 16 15 16 15 16 16 17 17 16 16 17 17 18 18 18 18 18 18 18
2 3 2 3 2 2 3 2 2 3 2 1 3 3 2 5 4 5 4 1 2 2 5 2 5 3 4 2 1 4 3 3 4 4 2 1 2 6 7 6 7 9 9 9 8 5 5 6 5 5 3 5 2 4 4 7 9 8 8 7 8 9 9 10 11 12 12 12 12 12 13 12 12 13 14 14 15 15 15 15 15 16 16 16 16 16 16 17 17 17 17 18 18 17 18 17 17
2 2 2 3 3 2 2 2 3 2 1 2 4 6 3 7 5 5 5 6 5 5 4 8 1 3 4 2 3 4 4 5 6 4 3 1 3 2 3 2 5 6 8 8 8 7 6 6 6 3 3 2 4 2 3 4 6 7 6 6 8 9 9 10 10 11 12 12 13 12 13 13 13 13 14 14 15 15 15 15 15 16 16 16 16 16 17 17 17 18 18 18 17 17 17 17 17
1 1 4 3 1 2 3 2 3 0 2 6 6 5 4 7 8 6 5 2 3 5 6 7 2 3 3 2 3 4 6 7 5 5 3 2 4 3 3 3 3 3 6 6 6 5 7 6 5 5 3 2 2 3 6 2 4 6 5 6 7 7 7 9 10 10 10 12 13 12 12 11 12 13 14 14 15 15 15 15 15 15 16 16 16 17 18 18 18 18 18 18 18 18 18 18 17
1 1 2 3 1 1 3 1 2 5 5 5 3 5 7 5 6 1 4 7 7 6 3 2 1 1 2 1 5 5 6 8 6 4 3 4 4 4 4 4 5 5 4 6 6 5 6 7 5 6 5 3 4 2 3 5 2 2 6 7 7 7 7 8 8 9 10 10 11 11 10 11 12 13 14 14 15 15 14 13 15 15 15 16 17 17 18 18 19 19 18 18 18 18 18 18 17
2 1 3 4 3 2 1 4 5 7 3 8 6 8 6 3 2 2 7 8 4 5 3 0 2 2 2 7 4 5 9 9 6 5 3 4 5 5 5 5 6 6 4 5 5 5 5 5 5 5 6 6 6 5 3 3 5 2 4 8 7 7 7 7 7 8 9 10 10 10 10 11 11 11 11 12 11 11 12 12 14 15 15 16 16 17 18 19 19 18 19 19 19 19 19 18 18
2 2 2 4 4 4 4 3 1 3 3 7 4 2 7 2 2 4 2 4 3 1 2 4 3 2 4 2 5 5 9 10 6 5 6 7 5 4 5 4 5 5 5 3 4 2 3 4 4 3 3 5 5 6 5 3 2 3 3 6 9 8 8 8 8 9 10 10 10 11 11 11 11 10 11 10 10 11 12 13 12 14 16 16 16 17 18 18 18 18 18 19 19 19 19 18 17
0 2 4 2 4 5 5 5 7 5 3 5 6 7 10 6 3 2 2 2 3 4 4 2 4 1 2 3 4 4 6 6 5 6 9 8 6 5 4 3 5 5 2 2 2 3 3 2 5 4 3 4 4 4 6 6 3 0 3 3 8 8 8 9 9 9 9 9 10 10 11 10 10 9 9 10 10 10 11 12 13 15 17 17 17 17 18 18 18 18 18 19 19 19 18 18 17
2 4 3 5 1 7 6 9 9 4 4 8 8 9 7 7 5 3 2 4 1 2 5 3 2 5 1 4 3 4 6 8 7 10 10 9 8 6 5 5 7 7 6 4 2 2 2 1 4 4 5 5 5 3 4 5 6 5 3 3 5 7 8 9 8 7 8 8 8 9 8 8 8 8 9 10 9 11 11 12 13 15 17 17 17 18 18 18 18 18 18 17 16 15 13 10 11
1 2 3 4 4 1 2 3 6 1 0 7 7 5 5 3 8 5 6 6 5 6 6 5 6 7 6 4 5 7 8 8 10 10 12 14 12 10 9 7 7 8 8 5 4 3 2 1 2 2 3 5 7 5 2 4 6 6 6 4 4 5 6 7 7 7 7 9 8 7 7 6 8 8 8 7 8 10 10 11 13 14 15 15 17 17 17 17 17 17 17 15 14 12 8 7 7
2 3 4 2 1 3 1 2 5 3 3 6 7 5 4 1 3 5 5 3 3 9 8 5 9 10 11 9 8 9 11 10 11 11 13 13 13 13 11 12 11 10 8 8 5 2 1 1 2 0 0 2 4 3 2 2 4 6 7 6 6 7 6 5 6 7 7 8 7 7 6 7 7 7 9 12 11 10 9 12 13 14 15 15 17 14 15 15 16 15 13 11 10 7 7 7 7
2 3 3 1 2 2 3 2 2 1 3 3 5 5 4 3 2 6 3 5 9 9 10 10 10 11 9 11 10 10 12 12 12 13 14 14 12 12 13 12 10 7 6 4 3 4 3 2 1 1 1 1 3 3 3 1 2 6 7 8 6 6 7 6 5 6 6 8 7 7 5 6 6 7 8 8 7 8 10 9 9 9 9 10 12 11 10 9 9 8 8 8 8 8 8 7 7
3 3 4 2 2 1 3 2 2 0 2 3 4 8 6 5 2 6 6 10 8 7 7 9 10 3 8 11 11 10 12 13 15 14 15 15 16 14 11 12 6 4 3 6 6 5 4 3 2 1 2 2 3 3 3 2 2 4 6 7 8 8 8 7 6 6 6 7 7 8 7 7 7 6 6 7 7 8 8 8 7 8 8 9 9 10 9 8 7 7 7 7 7 7 8 7 7
3 1 1 1 2 2 2 2 2 3 3 6 7 3 5 7 4 3 7 14 1 4 5 3 3 3 4 6 11 11 12 13 15 17 16 15 15 14 12 9 9 8 6 7 6 5 4 4 4 3 3 3 3 2 2 2 3 4 4 6 9 9 8 8 7 7 8 8 8 8 7 8 7 8 7 7 7 7 7 6 7 7 8 8 7 9 9 8 7 7 7 8 8 9 9 9 8
3 4 4 2 1 3 2 1 2 2 3 4 2 3 5 5 9 2 8 14 6 4 2 2 2 1 2 8 12 13 14 14 15 14 14 14 13 14 12 10 8 7 7 7 6 5 5 5 4 4 4 4 3 4 4 4 6 5 5 4 6 7 8 8 7 8 9 9 10 9 8 8 8 8 8 8 6 6 6 6 6 7 7 7 7 8 9 8 7 7 7 9 9 8 9 8 8
3 5 2 3 0 2 0 0 3 1 1 2 1 6 3 3 2 2 10 13 9 3 2 1 0 1 4 7 10 12 11 11 11 12 10 8 9 7 4 5 6 6 9 8 6 6 6 5 4 5 4 4 4 4 5 6 7 6 4 4 6 6 6 7 8 7 7 8 10 10 10 9 8 7 9 9 6 7 6 6 5 5 6 7 7 7 8 8 7 7 6 7 8 8 8 8 7
3 4 4 4 2 2 2 3 1 1 1 2 5 3 1 1 1 8 16 10 3 2 2 1 2 4 7 9 9 10 11 13 10 11 13 8 6 7 9 7 7 9 10 8 6 6 4 4 4 4 4 3 3 4 6 6 8 7 5 5 4 6 6 5 8 6 6 5 8 10 11 11 10 9 7 7 9 8 8 5 4 5 6 6 6 6 5 7 8 6 6 7 8 8 8 8 7
2 5 3 4 2 2 2 2 3 1 1 2 4 3 1 1 1 8 2 3 2 2 4 1 4 8 8 6 6 7 9 11 12 9 7 8 8 9 9 8 8 10 7 7 6 5 4 3 4 4 4 4 4 5 6 8 8 9 8 6 4 4 6 6 6 7 7 8 3 6 9 10 10 9 9 9 7 9 7 6 6 3 3 4 5 6 5 7 7 7 7 7 7 8 7 7 7
3 3 4 5 3 2 2 2 2 2 3 1 1 1 1 0 2 12 3 2 1 4 5 4 5 7 6 6 5 5 6 6 6 8 12 12 10 10 10 10 10 8 7 8 6 4 4 5 5 5 5 5 6 7 6 8 10 11 9 8 6 6 5 6 7 7 7 7 8 8 7 8 10 10 10 10 9 9 7 8 7 6 4 4 5 8 8 6 7 8 9 8 8 7 7 6 7
3 3 4 2 2 3 2 1 2 3 2 1 0 3 8 7 11 9 4 2 2 2 5 6 8 7 6 5 5 6 8 7 7 8 11 9 7 8 11 9 9 9 6 7 6 5 5 5 5 5 5 6 8 8 7 8 11 10 7 4 6 5 5 4 5 6 5 6 8 9 8 8 10 11 10 10 10 10 9 9 9 8 7 4 6 9 10 7 8 9 8 8 8 8 8 7 7
2 5 2 3 2 5 4 1 2 2 1 1 2 6 6 13 20 6 3 3 1 4 7 7 6 6 5 5 6 7 7 7 9 10 8 8 7 8 10 9 9 8 6 6 7 7 5 3 4 4 5 7 8 7 7 8 10 7 3 2 3 5 4 4 3 3 4 3 5 8 8 8 8 7 10 9 8 8 9 10 10 9 8 8 7 9 10 7 8 10 10 8 8 7 7 8 8
2 1 2 1 1 2 3 2 2 5 2 2 2 7 7 2 5 2 3 1 5 9 9 7 7 6 5 6 6 8 9 9 11 9 8 8 7 6 9 8 9 9 6 7 9 8 7 6 5 4 5 7 8 9 8 9 10 6 3 2 3 7 5 4 4 2 4 6 6 6 9 9 9 10 10 10 9 8 8 9 9 8 8 9 8 6 8 7 7 9 9 10 7 7 7 8 8
2 3 3 1 3 2 2 3 1 5 3 1 3 9 11 11 6 5 2 1 3 8 10 9 8 7 6 6 8 9 9 8 9 10 9 10 9 8 9 10 9 10 10 8 8 7 7 7 7 6 7 8 8 7 9 7 5 4 4 3 1 3 4 4 3 3 1 3 4 7 9 10 9 11 11 11 11 10 9 9 8 9 11 9 9 8 7 8 8 8 8 9 10 7 8 8 7
2 3 1 2 1 1 4 3 1 3 1 1 8 7 3 4 1 3 2 2 2 6 9 8 9 9 7 7 7 8 8 9 9 11 11 10 9 9 8 10 10 11 10 9 9 8 8 8 8 8 9 9 9 5 3 3 3 4 4 3 2 1 3 3 3 2 3 2 1 6 8 8 7 8 9 10 10 9 7 7 6 10 9 9 9 5 7 8 9 8 7 4 6 9 8 9 8
3 2 2 1 3 1 2 4 2 2 2 5 6 6 13 7 3 2 3 3 2 5 9 10 8 6 7 6 8 9 9 9 11 11 13 12 9 11 9 9 9 10 10 10 9 9 9 8 8 8 9 9 8 6 4 3 3 4 3 2 2 2 2 2 3 2 2 3 3 4 4 5 4 6 8 8 8 7 7 9 8 8 9 9 8 5 7 8 8 10 11 7 6 9 8 8 9
3 4 3 3 3 6 6 3 3 3 1 6 6 12 17 15 14 12 10 7 6 10 11 13 12 10 8 7 8 10 9 10 14 11 10 12 11 11 9 9 9 10 8 11 9 9 7 7 7 8 9 6 5 6 5 4 4 4 4 3 3 2 2 2 2 2 2 2 2 5 5 4 5 6 6 7 9 9 8 9 10 7 7 10 9 7 7 7 8 8 12 9 5 5 6 7 9
4 5 2 0 3 3 3 2 2 3 4 7 10 11 14 14 12 12 13 6 8 11 11 11 12 10 11 10 10 9 10 13 10 6 8 8 9 10 10 9 9 9 9 10 10 9 9 8 8 8 9 8 6 6 6 5 4 4 5 4 3 2 2 3 2 2 2 2 2 2 4 4 5 5 6 6 10 9 9 10 10 10 6 8 10 10 8 9 11 11 11 12 10 7 4 7 9
7 4 2 1 3 8 1 2 2 1 3 12 13 13 17 18 15 16 16 4 5 10 13 13 12 10 10 11 12 12 12 14 3 5 7 9 9 9 9 9 9 10 11 11 11 10 10 9 10 11 7 7 7 6 6 6 6 5 4 5 4 3 3 2 3 3 2 2 2 3 2 4 6 7 7 6 7 9 9 10 10 10 9 8 9 10 10 9 9 11 10 7 13 12 6 6 9
2 3 3 3 2 7 3 3 2 2 4 5 3 6 13 16 15 15 12 9 15 14 15 15 16 13 11 13 15 14 13 5 4 5 7 8 8 9 9 9 11 13 12 12 12 11 10 10 11 10 7 7 7 7 7 7 6 6 6 5 4 4 4 3 4 3 3 1 1 1 2 5 6 7 6 7 5 8 8 8 9 10 10 9 8 9 11 12 11 11 11 9 5 11 9 9 9
3 3 2 2 5 6 5 4 2 2 3 10 8 10 14 15 16 17 15 15 14 15 15 16 13 12 12 12 14 14 9 12 8 9 8 8 9 10 10 10 11 13 12 13 11 11 11 11 12 11 8 8 7 8 8 8 6 3 4 5 5 4 2 2 2 3 3 2 2 1 1 3 6 8 8 9 7 6 7 8 8 7 5 9 11 10 11 11 10 13 13 13 10 6 8 6 6
3 3 3 6 1 1 4 4 3 4 5 5 4 10 13 14 16 21 21 16 15 15 16 15 12 15 18 18 14 11 13 12 11 10 10 9 9 10 10 11 12 12 11 12 12 12 10 11 12 12 10 8 7 9 5 4 6 6 6 5 5 3 4 3 3 3 3 3 3 0 2 2 2 5 7 7 6 7 9 9 7 5 6 6 10 13 11 12 11 10 10 11 12 11 8 6 2
3 5 5 4 3 5 5 3 3 5 2 2 9 12 13 12 14 12 5 1 7 14 10 12 14 16 17 13 12 13 16 13 11 9 9 9 11 13 13 12 11 12 12 13 12 12 9 13 14 13 10 9 8 8 7 7 8 7 6 7 6 6 5 3 3 3 2 1 2 2 3 1 2 2 4 6 6 7 6 8 8 7 7 6 8 11 13 13 13 11 12 12 12 13 11 7 3
3 7 11 8 6 6 1 3 8 6 4 4 3 8 5 3 9 10 7 4 9 9 7 11 13 12 10 13 16 13 13 13 13 10 9 11 12 11 11 12 13 13 13 12 12 12 11 11 14 13 9 9 8 10 9 8 7 8 8 7 7 4 5 6 7 8 7 6 7 2 3 2 2 2 4 5 5 7 9 8 10 10 9 9 8 10 11 11 12 11 11 11 11 9 11 10 6
4 2 8 13 5 1 1 0 1 4 5 2 3 3 11 3 7 7 5 7 15 10 8 15 14 10 8 10 10 9 10 10 9 9 6 9 10 10 11 13 14 14 13 11 11 11 12 12 14 13 9 8 8 9 10 7 8 7 11 11 9 9 8 6 5 5 5 4 4 5 4 4 3 4 3 5 5 7 8 9 9 10 10 10 9 9 10 12 11 11 9 10 9 9 9 9 9
4 2 1 3 4 6 4 3 5 6 4 5 5 4 9 13 8 13 13 13 15 14 12 14 13 13 11 10 9 8 7 7 6 8 10 10 10 12 13 13 13 13 12 12 11 11 13 14 14 13 8 8 7 8 10 8 8 8 8 9 8 8 8 8 9 6 4 4 5 4 4 4 3 2 2 3 5 6 7 8 8 8 8 8 8 8 10 9 8 7 8 6 7 8 9 9 10
1 1 1 5 5 4 4 3 2 1 6 8 7 6 3 9 2 1 3 8 12 13 12 12 11 7 6 6 5 4 4 4 6 6 7 9 10 11 11 11 11 12 11 12 11 11 12 13 14 12 9 9 9 10 10 10 9 10 9 7 7 4 4 4 5 5 5 4 5 2 3 4 4 3 2 2 3 5 5 7 8 8 8 8 7 7 7 8 11 11 8 7 9 8 7 7 9
1 4 7 7 6 5 2 2 1 2 1 10 8 9 4 17 6 6 1 4 9 9 8 9 7 5 4 3 3 2 2 2 3 5 5 6 7 8 8 8 10 11 10 11 11 11 13 13 15 12 11 9 9 11 9 10 10 8 8 7 10 5 4 5 5 6 6 5 5 4 3 4 4 4 4 3 3 4 5 6 7 8 8 8 7 7 7 8 9 8 9 9 8 9 6 7 9
12 6 8 5 5 3 2 3 1 1 5 7 14 13 5 10 5 8 9 6 4 3 4 5 4 5 1 3 2 1 2 1 1 2 3 3 3 5 7 9 10 10 9 12 11 11 12 14 15 13 11 9 10 11 10 11 8 7 6 7 8 9 8 8 8 6 5 5 6 5 5 4 5 4 4 5 5 5 5 6 7 7 7 7 7 8 10 10 9 9 7 7 7 7 6 6 5
6 3 4 4 2 2 2 0 1 3 9 2 3 9 6 9 4 5 3 2 2 4 5 6 4 4 4 2 1 0 1 1 1 2 2 3 4 5 6 8 10 11 11 12 11 11 13 14 14 15 12 11 10 10 10 10 9 8 6 7 8 7 10 8 9 10 10 10 9 8 6 5 5 5 5 5 5 6 6 6 6 7 7 7 8 8 8 8 7 7 6 7 6 5 5 6 5
2 4 5 4 2 1 3 2 5 9 8 2 2 3 4 18 14 5 8 8 8 8 8 7 6 7 2 3 3 1 1 2 2 2 3 4 5 7 8 9 9 11 11 13 13 13 13 14 16 16 13 12 11 11 11 10 8 8 9 8 7 7 8 8 9 10 10 9 9 8 9 7 7 7 6 6 6 8 6 7 8 7 7 7 7 7 6 6 6 6 6 6 6 6 6 6 6
7 10 9 6 5 4 6 3 2 4 5 5 4 4 10 12 10 14 21 18 13 7 9 10 9 10 8 4 4 2 2 2 2 3 3 4 5 6 8 9 10 10 12 12 13 14 13 13 16 17 15 12 11 11 11 11 10 9 8 8 7 7 7 7 6 7 10 8 8 10 10 10 10 10 10 8 8 8 6 6 7 6 5 6 6 6 6 5 5 5 6 6 6 4 5 5 6
13 4 10 7 6 4 5 4 6 6 2 2 4 3 6 2 1 2 9 8 7 7 7 7 8 10 10 3 2 4 4 3 3 4 5 5 6 7 7 9 9 10 12 12 13 14 13 14 16 17 16 13 12 12 10 11 10 10 8 8 7 7 8 8 8 7 8 6 7 8 7 6 7 8 8 7 8 7 7 6 6 6 6 6 6 6 5 5 4 6 5 6 5 5 5 6 6
3 0 4 1 10 3 8 1 1 1 2 2 5 7 3 6 4 4 3 5 8 7 9 5 11 12 11 7 8 7 5 5 5 5 6 6 6 6 7 8 9 10 12 12 14 14 14 14 15 17 16 13 12 12 11 11 10 8 8 9 7 8 6 7 5 6 6 3 5 7 7 8 7 7 6 8 7 7 7 7 6 6 6 6 6 7 6 6 5 6 6 6 6 3 6 7 6
7 6 8 5 5 3 3 1 3 2 1 10 4 8 10 6 12 15 14 7 9 3 5 7 12 14 10 12 7 4 5 7 5 6 5 6 6 6 7 9 9 10 11 12 14 14 15 14 15 16 17 12 13 12 11 11 11 9 9 9 8 8 8 8 9 9 10 8 4 4 5 5 4 6 6 7 8 6 6 7 7 7 6 7 7 6 6 6 6 6 6 7 7 5 6 6 5
9 7 8 3 1 4 3 7 1 3 9 7 2 9 12 2 11 5 0 8 11 9 11 11 11 9 9 12 1 4 6 7 7 5 4 5 6 8 8 8 10 11 12 13 14 13 13 13 14 16 17 15 14 13 13 11 11 11 10 10 8 9 9 9 6 8 6 8 6 4 3 5 6 4 5 7 8 8 7 7 7 7 7 7 7 7 7 7 7 7 7 6 6 6 7 6 6
2 1 4 8 4 6 5 2 7 5 4 5 4 5 9 10 14 2 5 9 11 13 14 12 13 13 14 8 3 5 4 4 6 6 5 6 7 8 9 9 9 10 11 12 12 12 12 12 13 14 16 15 14 12 11 9 11 8 7 9 10 8 8 7 7 8 7 8 8 7 7 7 6 6 6 8 9 8 7 7 7 7 7 8 7 7 7 7 7 8 7 7 6 6 7 7 5
2 2 3 3 2 5 7 7 1 2 8 0 6 2 11 7 7 8 14 13 12 12 9 11 15 13 8 7 5 6 7 7 7 5 6 6 7 8 9 10 11 12 11 11 12 11 13 13 13 13 13 12 12 12 11 11 11 9 8 8 8 7 7 9 9 10 9 9 8 8 8 8 8 7 7 8 8 9 8 9 7 8 8 8 8 7 7 8 7 7 7 7 6 7 8 8 6
6 7 8 4 2 4 3 1 3 4 3 3 4 9 11 7 9 9 11 11 12 12 12 9 7 8 8 5 5 7 7 7 7 6 4 6 6 6 8 8 8 9 9 10 11 12 12 12 13 14 15 14 14 13 12 12 9 9 10 10 10 9 9 7 8 7 8 7 7 7 7 7 8 8 8 8 9 9 9 9 9 9 9 9 9 8 7 7 7 7 6 7 7 7 8 7 7
15 16 15 16 10 6 6 6 4 0 3 4 2 11 13 5 4 7 10 6 4 5 8 7 7 8 3 2 5 6 7 7 4 3 4 4 5 5 6 6 6 8 9 11 11 11 13 14 13 14 14 14 13 12 12 11 10 8 10 9 9 9 8 9 9 8 9 8 7 8 7 8 9 9 9 9 10 9 9 10 9 9 9 8 8 8 8 7 8 8 8 5 7 8 8 8 7
Wind_Direction
319 9 25 136 226 258 263 27 240 85 262 51 120 208 106 320 347 198 177 137 187 89 82 128 146 162 246 349 343 25 31 269 11 292 34 71 75 99 144 167 172 170 164 145 149 152 170 151 243 130 126 112 108 108 107 106 109 107 115 115 110 113 109 112 111 106 101 98 94 86 81 76 71 67 65 64 64 65 64 65 66 67 71 76 81 84 87 87 86 86 88 87 85 83 81 78 73
346 359 97 207 10 243 154 304 79 219 95 150 101 296 103 146 209 185 154 189 31 89 129 128 144 85 59 16 43 107 138 23 6 47 87 69 135 119 113 166 156 167 161 153 154 155 152 142 234 117 139 116 113 112 110 113 113 115 120 115 115 115 118 115 110 107 103 100 97 91 84 78 72 69 68 67 66 66 67 67 68 70 73 77 82 87 88 89 91 91 88 88 88 85 82 76 72
4 334 152 223 151 320 115 261 260 32 298 58 116 153 115 172 185 148 77 42 87 105 121 110 116 189 240 227 212 255 85 46 93 90 86 120 143 131 121 135 163 162 158 155 157 148 149 129 114 167 140 120 116 119 115 114 111 114 117 125 126 120 115 112 111 109 107 104 99 94 87 80 74 71 71 70 69 68 68 69 71 72 75 80 82 84 86 88 92 91 88 85 82 81 79 77 74
277 21 274 260 150 234 150 113 27 314 9 25 191 135 182 168 147 88 87 106 111 122 141 150 187 57 280 228 353 183 77 136 98 127 130 180 66 124 124 139 171 157 154 159 161 148 157 133 173 149 144 126 119 117 122 115 114 118 122 116 114 114 116 117 116 112 108 105 100 93 87 80 74 72 72 73 72 71 70 72 75 76 77 81 83 84 87 91 92 89 87 86 85 82 80 79 77
233 55 302 249 276 106 17 42 39 267 338 142 38 135 177 172 122 123 126 129 135 173 221 141 186 75 347 344 79 286 87 70 150 273 79 95 41 119 128 155 174 159 162 173 160 153 143 124 147 155 146 134 130 130 130 124 118 112 113 115 118 119 118 116 114 114 110 105 99 93 87 80 75 73 73 73 74 74 73 74 78 79 79 81 84 88 88 89 89 91 91 87 87 86 83 79 75
212 41 48 268 341 40 168 174 149 217 36 326 169 143 163 150 143 140 144 165 165 253 304 235 318 152 182 147 344 290 116 164 104 155 201 124 89 124 140 175 174 160 165 172 161 159 151 143 173 175 155 144 139 138 128 128 122 123 123 121 118 118 120 117 115 113 109 105 101 94 88 83 78 76 74 75 76 77 77 77 77 80 81 82 85 89 91 92 88 88 88 89 86 79 73 68 71
294 197 71 100 114 250 327 50 78 336 91 319 31 127 157 147 135 143 154 175 213 257 166 249 192 169 187 135 188 250 7 342 197 91 235 63 346 31 159 177 166 162 165 173 170 157 150 144 185 179 165 150 142 137 138 135 134 136 137 127 122 119 118 117 117 115 113 109 104 98 92 85 81 78 77 79 81 82 82 82 81 81 81 83 86 88 88 89 88 86 82 80 81 78 76 77 77
111 268 28 224 68 297 90 58 97 281 91 281 354 12 135 147 143 170 165 200 159 221 169 203 222 281 51 284 223 108 326 246 328 24 52 316 82 177 211 181 175 161 167 167 172 161 139 151 163 159 174 154 145 149 144 143 139 138 139 136 126 123 122 119 117 116 114 111 108 104 97 91 88 84 83 84 85 85 86 86 87 87 86 86 85 88 91 89 87 84 84 80 77 78 79 80 80
20 37 248 197 125 78 153 163 48 65 7 211 229 279 348 120 182 181 177 198 67 229 173 182 171 245 126 171 148 91 226 202 248 341 311 228 192 185 198 202 171 162 165 167 168 168 165 103 28 352 175 162 155 158 153 150 148 147 147 147 132 130 122 122 120 118 113 113 112 108 102 97 93 91 90 90 89 89 89 88 86 86 87 88 89 88 88 87 86 81 78 81 83 84 85 81 79
94 304 147 57 67 154 58 145 231 114 138 120 276 162 177 165 181 231 193 195 216 155 144 70 239 308 143 176 134 179 163 148 102 202 245 254 214 187 190 187 168 167 165 163 162 162 150 103 54 28 355 158 157 169 161 149 149 150 153 141 140 123 123 126 124 121 121 122 116 110 105 99 95 94 92 91 90 91 92 92 91 89 89 90 92 92 90 88 88 87 84 82 83 84 83 81 78
138 59 348 176 179 149 229 139 216 146 188 137 230 206 163 167 189 186 214 228 98 235 135 190 199 184 195 155 49 50 77 143 183 179 151 250 235 180 180 178 175 175 169 160 158 159 151 156 89 41 33 3 157 177 174 154 147 153 156 149 138 124 126 129 127 125 129 127 124 118 112 102 97 95 92 91 92 92 94 94 96 95 94 94 93 92 91 89 88 86 85 84 82 82 81 80 76
157 183 192 181 198 250 162 210 165 134 178 214 167 163 164 176 193 192 196 219 177 204 201 181 107 141 188 168 150 139 131 171 190 135 157 180 162 145 152 150 191 174 174 168 164 165 165 158 175 102 48 19 349 136 181 169 144 146 148 143 130 135 139 135 133 136 136 133 127 127 118 110 104 98 95 95 95 96 96 97 98 100 101 100 100 98 96 93 90 87 85 85 84 84 83 81 78
335 267 169 199 78 243 69 206 145 56 211 208 174 147 141 174 191 208 193 233 180 193 213 190 65 245 199 185 71 132 178 166 142 159 155 168 160 149 156 129 115 136 138 111 113 152 153 158 183 186 112 73 182 45 14 7 151 139 146 133 142 142 141 139 143 141 139 135 131 126 118 109 104 101 100 100 99 99 99 97 98 99 101 102 101 101 97 94 90 88 86 86 86 85 85 81 77
210 254 201 193 3 119 178 107 88 208 206 142 96 118 171 188 207 249 174 209 198 210 61 88 186 227 264 161 152 174 178 147 158 160 154 153 149 137 138 137 123 128 103 106 113 110 136 170 181 192 171 177 187 144 73 41 4 157 141 140 139 138 145 143 143 141 136 130 128 125 118 111 105 104 104 104 105 103 101 98 99 99 100 100 101 100 99 98 95 93 90 87 86 84 82 79 75
100 230 75 105 126 187 155 195 190 204 192 159 135 152 169 247 359 221 212 230 175 56 110 322 312 240 109 201 139 169 155 147 157 148 147 143 149 131 127 128 120 101 89 70 85 125 121 123 157 173 187 184 165 178 171 83 34 152 155 142 138 141 143 141 133 124 125 129 126 123 114 103 100 101 102 104 102 102 101 98 98 99 101 101 101 101 101 99 97 94 91 89 88 85 83 80 76
100 153 85 166 156 210 166 232 322 215 187 168 122 113 179 110 221 196 204 343 70 61 221 172 206 278 343 312 59 91 120 137 148 149 151 148 125 123 123 123 126 97 86 80 101 67 96 130 132 106 148 178 176 182 182 150 80 86 148 152 146 142 143 135 123 121 124 128 125 124 117 113 111 106 109 108 103 103 101 102 100 100 101 101 101 101 100 99 98 95 93 91 89 87 84 80 77
230 270 167 155 192 208 153 198 161 201 119 144 120 168 185 181 136 299 345 269 226 152 207 210 196 143 291 40 66 112 120 131 140 154 152 154 154 165 154 146 142 120 97 107 116 125 110 135 140 124 118 141 147 194 185 192 144 269 107 142 132 132 134 127 119 115 119 123 129 130 141 139 129 126 129 117 113 102 97 98 100 101 102 100 100 101 102 102 100 99 97 94 91 87 82 76 72
253 197 197 200 110 194 159 190 187 21 195 161 175 187 195 186 166 151 179 182 254 136 226 181 226 239 251 99 87 120 131 158 162 161 169 162 175 163 175 173 170 169 162 147 123 112 113 167 116 140 147 146 123 128 202 192 171 217 167 148 165 136 131 135 138 142 140 140 137 155 157 150 146 142 126 127 115 115 104 101 104 106 106 104 102 102 101 102 101 100 99 97 96 97 98 91 81
226 111 225 232 165 102 181 190 156 196 59 161 160 174 228 193 165 156 213 184 192 223 225 207 232 214 179 157 144 163 158 170 178 186 177 183 182 179 179 178 180 177 185 181 174 137 132 125 103 162 149 147 133 132 166 190 180 193 194 176 173 142 144 154 156 152 160 156 163 168 170 158 153 141 141 121 120 102 103 105 103 105 106 103 102 101 101 101 101 100 97 94 93 96 92 91 88
50 240 203 225 101 68 249 158 152 354 311 154 155 161 230 70 195 120 229 175 165 228 222 194 232 226 192 174 166 164 172 181 188 195 192 194 193 186 185 189 190 190 185 193 177 125 123 130 104 41 21 139 136 121 138 189 209 197 198 192 176 167 159 170 168 172 165 168 171 175 174 157 155 142 88 110 118 123 104 92 93 95 97 99 102 98 95 94 98 97 95 99 95 83 82 84 84
125 232 234 79 95 199 118 225 88 41 319 154 140 112 206 154 170 190 186 228 230 238 236 235 226 229 174 159 164 168 177 188 195 200 202 202 200 196 196 193 195 177 161 140 145 166 163 165 156 184 254 172 133 136 120 121 260 214 201 196 184 180 178 183 183 177 174 175 172 176 167 163 154 136 142 143 148 136 131 129 128 126 123 121 122 115 116 119 115 110 101 94 87 83 79 75 77
139 22 15 81 146 119 82 170 62 155 334 142 129 166 194 98 166 218 202 223 235 230 233 220 247 16 132 162 169 169 182 188 196 202 207 204 198 196 194 189 167 123 126 180 181 165 179 165 179 217 235 212 145 149 165 156 198 224 207 205 193 180 180 179 184 190 177 176 177 173 161 168 156 145 158 159 150 150 146 147 140 134 133 131 134 127 129 126 120 111 102 95 88 83 76 69 64
164 95 202 214 354 45 80 156 177 205 157 165 180 179 96 186 203 203 233 233 234 57 53 6 348 43 66 156 157 178 185 193 196 204 205 206 202 198 197 182 175 177 180 195 170 175 174 177 180 199 214 216 169 152 184 206 204 223 224 213 196 189 183 186 188 186 180 173 176 173 169 165 169 165 165 165 159 159 149 142 138 139 141 138 137 131 128 127 123 114 107 101 96 90 84 79 74
300 126 147 138 285 15 21 39 112 209 207 180 59 87 203 159 229 110 232 239 241 99 48 2 345 6 165 169 180 186 190 193 200 204 207 211 208 201 193 188 178 173 185 185 181 181 186 193 188 199 209 217 193 194 212 222 220 219 223 221 225 189 176 178 187 193 187 184 182 178 173 169 172 171 164 167 166 160 146 138 145 146 143 141 141 136 132 127 121 111 108 105 101 95 93 87 80
136 124 173 102 231 5 7 116 168 238 229 34 173 187 201 219 283 43 247 246 238 192 127 239 327 203 194 207 192 198 193 195 204 204 210 217 214 206 181 188 182 180 199 189 183 190 190 187 189 204 213 222 224 214 226 231 228 217 213 215 218 171 188 176 174 191 195 188 189 179 174 180 180 166 165 163 160 163 144 138 147 144 145 143 147 143 131 122 113 112 108 105 103 100 97 90 84
7 74 128 135 112 94 93 126 170 194 124 194 180 192 54 348 314 258 253 251 95 68 213 180 216 219 213 214 207 198 197 199 199 201 208 209 211 204 207 205 193 202 206 192 182 199 189 189 209 223 228 233 238 241 232 229 226 225 218 213 203 174 178 170 179 186 194 199 194 190 183 180 181 172 157 151 159 156 143 135 135 145 143 140 140 124 107 110 115 111 108 104 99 96 96 93 90
89 113 98 102 78 158 166 203 132 132 164 198 228 201 177 73 251 264 137 21 14 183 204 163 227 235 227 223 216 211 209 204 199 198 194 201 199 207 204 200 205 211 201 199 196 194 176 187 215 227 231 237 239 233 235 233 225 225 220 214 208 206 211 186 196 202 197 195 216 199 189 184 174 168 165 157 142 147 139 137 143 121 102 115 123 110 90 110 114 115 112 104 102 104 98 95 97
60 119 143 92 86 77 115 134 87 241 144 248 286 249 325 264 166 246 117 86 44 218 214 213 224 236 236 231 232 226 228 218 197 194 205 196 201 199 199 196 200 198 194 202 201 189 187 207 216 224 230 224 229 229 226 231 227 226 224 218 216 207 203 210 207 208 204 198 192 181 201 188 179 169 163 157 151 150 147 147 150 143 128 124 124 123 112 104 108 102 96 94 94 99 100 91 92
105 227 174 54 124 184 75 195 48 309 113 175 108 261 238 185 237 234 103 122 124 238 241 228 234 239 239 239 236 232 229 220 210 214 217 211 199 193 200 197 191 191 198 196 189 182 202 203 218 220 226 230 227 229 225 222 222 225 222 200 222 202 187 197 206 198 187 197 192 184 174 183 180 175 167 160 156 155 153 151 151 147 141 125 123 118 115 112 109 107 99 103 104 101 97 93 92
198 79 2 172 191 224 97 128 56 224 94 169 236 263 233 212 229 210 135 121 153 247 244 233 237 237 237 231 237 242 230 222 222 222 214 209 201 193 202 193 190 193 188 184 183 195 191 198 203 213 219 225 227 227 221 217 223 218 186 155 197 210 196 184 180 185 162 154 182 174 165 167 165 158 165 159 150 145 148 151 146 141 136 131 129 130 126 129 127 121 120 113 111 110 107 105 101
184 42 261 347 242 179 90 48 67 224 100 223 236 258 263 199 221 59 71 228 238 261 256 242 236 238 237 235 237 241 238 225 231 225 216 212 208 201 202 195 189 198 188 188 191 193 187 193 192 208 207 219 214 216 214 217 218 201 155 167 190 205 170 155 167 164 163 172 177 171 173 170 173 166 166 162 151 141 140 136 136 137 135 139 141 153 136 134 124 121 126 120 114 104 101 102 104
42 213 177 149 248 117 117 109 181 240 106 277 212 264 262 274 265 86 42 142 190 247 260 259 249 240 237 240 242 244 245 231 233 234 225 217 211 208 199 200 190 194 199 191 188 186 197 194 190 201 198 206 205 204 204 202 186 154 160 165 210 158 139 135 139 161 141 152 180 176 174 174 164 165 168 161 154 149 139 139 144 145 148 146 149 144 138 132 125 119 124 129 121 110 110 103 102
41 283 149 194 226 319 290 101 2 21 40 165 230 266 33 260 26 40 50 149 180 254 267 264 257 251 244 242 242 246 252 241 234 229 222 214 213 206 201 201 193 193 192 189 188 186 196 188 189 197 197 196 191 174 138 144 148 131 126 130 117 65 139 141 134 132 145 135 154 169 176 167 156 150 154 158 148 142 140 135 141 147 144 145 149 141 138 132 124 109 91 63 108 122 112 110 106
192 38 253 85 249 121 242 106 107 43 283 208 220 251 250 267 278 194 163 151 164 259 268 270 263 247 242 243 242 243 242 243 237 224 214 206 208 203 204 201 196 190 192 193 191 189 193 186 188 197 193 194 185 161 154 127 116 108 104 101 82 93 79 109 126 135 121 111 139 158 160 162 142 137 145 146 134 132 129 137 132 142 142 135 137 126 122 123 117 119 114 105 96 110 121 125 114
171 170 214 202 209 231 275 270 95 203 130 253 225 244 261 258 266 272 264 165 238 260 264 269 272 265 254 238 242 242 240 237 240 225 205 196 202 198 200 195 195 193 192 192 190 189 188 186 188 181 180 174 145 149 134 118 108 106 98 95 94 96 95 81 97 116 103 121 126 146 152 151 154 127 138 144 130 135 130 134 136 145 144 140 138 127 117 114 112 119 126 125 98 91 122 122 120
151 180 167 175 244 197 225 206 102 242 226 239 233 248 263 263 257 258 259 205 237 260 266 266 260 257 256 250 246 241 236 241 239 195 194 195 197 192 192 190 193 193 192 191 190 187 191 184 187 177 186 178 157 146 147 149 145 145 141 123 117 113 115 132 111 94 122 111 103 125 150 142 139 120 121 153 138 135 141 147 146 147 158 137 135 132 130 134 129 121 122 124 118 98 97 125 128
89 91 157 191 253 274 154 137 78 240 270 252 249 253 265 271 271 271 272 196 224 248 255 253 250 247 247 247 246 243 239 243 132 183 198 199 193 191 188 187 192 191 194 192 188 189 192 187 188 183 176 172 167 160 165 161 158 146 151 166 156 147 145 142 136 130 118 123 127 142 166 136 138 139 136 153 153 138 139 143 146 146 154 150 143 144 140 132 130 130 126 129 133 132 144 147 132
148 150 215 203 187 266 86 102 97 175 238 275 145 267 268 274 275 270 266 256 264 250 247 247 249 242 242 245 249 244 245 244 192 200 189 190 190 184 184 191 189 190 196 194 193 189 188 192 197 187 171 182 182 171 166 177 174 175 169 166 145 146 151 170 147 147 143 129 92 130 167 145 147 143 144 132 138 143 138 143 148 156 155 153 132 120 125 132 129 132 135 126 150 141 144 156 145
114 248 157 276 247 275 287 71 140 176 189 266 278 267 266 270 277 276 264 253 257 257 248 255 261 259 249 244 244 249 245 247 222 225 185 188 182 182 189 195 198 200 191 193 191 186 189 195 200 193 181 182 180 175 175 180 169 138 149 143 149 127 43 18 89 108 125 137 111 139 128 137 161 157 152 147 150 150 142 142 144 142 138 134 130 130 139 146 152 151 155 146 147 145 139 156 167
186 169 178 234 56 323 267 127 97 160 224 304 321 292 275 266 261 262 261 253 257 258 258 258 251 255 255 249 246 246 246 247 236 213 197 183 183 187 193 196 197 193 191 192 191 191 189 197 200 193 183 182 177 179 158 107 111 103 84 97 88 92 138 107 85 82 81 109 107 25 63 116 183 163 148 145 148 151 150 143 133 128 137 150 145 143 153 155 158 160 159 153 146 140 155 166 202
208 216 223 242 200 221 243 336 298 162 238 356 283 277 263 226 244 255 253 302 260 265 266 260 251 242 249 262 265 251 255 252 245 221 179 175 187 197 197 194 188 192 193 191 188 190 189 196 200 195 182 179 179 163 149 136 125 115 105 91 90 92 87 105 115 104 107 72 95 163 142 117 169 161 126 133 143 147 140 137 137 138 148 160 154 147 159 166 167 170 163 156 163 152 156 158 186
190 220 221 231 231 241 115 344 338 288 253 126 306 316 276 179 232 254 280 283 265 249 251 257 250 241 233 243 250 251 243 243 248 247 196 188 197 196 191 190 192 195 195 193 188 190 189 194 199 195 181 177 173 163 153 154 158 147 147 151 155 163 154 170 180 170 170 177 179 136 120 172 173 136 141 144 148 158 151 153 149 155 159 168 170 159 159 159 168 170 168 161 164 170 155 153 152
230 234 205 228 225 45 126 203 310 272 284 84 276 294 285 174 230 236 227 256 268 260 242 263 263 250 223 233 244 238 237 247 240 239 225 196 199 190 190 192 194 197 198 187 185 189 192 196 201 195 179 173 161 160 161 163 161 170 170 171 171 172 169 188 181 165 156 149 135 162 159 164 160 151 145 160 160 173 163 156 158 162 163 168 165 160 161 166 167 167 165 170 169 158 158 150 157
220 56 122 171 160 203 211 201 215 275 348 243 169 211 282 281 217 227 244 259 270 277 268 263 261 261 256 252 253 250 245 240 233 226 223 216 198 194 197 195 193 198 188 182 183 189 196 202 199 194 175 168 160 163 172 176 170 176 181 179 177 181 181 171 167 154 129 128 144 157 153 147 129 118 123 150 163 177 162 152 156 162 162 163 160 165 162 161 157 157 166 164 158 162 168 157 155
26 26 226 143 171 169 148 185 225 322 355 287 140 168 248 270 115 69 172 250 256 259 257 260 262 261 260 273 287 295 288 267 241 229 222 207 202 201 199 192 194 190 187 184 185 189 196 201 199 189 177 164 169 173 178 184 182 183 185 181 175 167 149 111 118 125 137 145 133 140 143 134 137 140 154 150 155 173 159 155 154 160 159 155 161 159 159 158 160 161 166 162 167 173 175 160 154
130 128 90 88 86 72 127 133 172 246 327 268 149 193 234 280 166 176 205 221 263 260 254 259 273 297 305 327 334 327 303 273 247 247 235 215 205 199 195 185 181 186 184 181 180 182 195 198 197 182 179 172 172 179 182 186 189 186 189 184 179 152 114 122 140 144 146 156 148 152 138 148 152 158 155 153 156 163 160 153 156 159 157 156 161 153 145 151 155 164 170 172 173 168 165 160 165
130 172 105 85 68 91 89 65 67 256 240 257 153 193 217 287 187 190 172 198 216 225 264 269 279 279 60 58 79 351 330 313 262 230 225 209 189 186 176 183 182 180 180 181 181 184 196 198 198 187 180 175 174 178 180 186 188 193 195 190 172 155 149 152 150 149 147 155 157 161 167 164 161 156 157 162 169 159 156 155 158 155 153 151 149 148 162 165 165 168 167 162 167 163 163 160 143
152 151 136 135 138 127 172 139 147 227 256 118 299 191 208 235 241 238 225 21 270 239 242 267 282 264 131 128 110 35 286 300 219 222 188 177 161 171 177 186 184 183 180 182 187 190 200 200 197 194 182 176 175 179 182 185 187 189 191 190 181 167 159 163 167 166 172 170 167 167 170 161 163 156 166 165 163 163 162 153 146 145 151 156 158 162 164 165 160 155 158 166 164 153 133 142 145
217 145 154 198 217 112 217 177 218 199 239 110 68 159 307 239 246 338 298 278 263 229 240 260 271 275 208 149 142 176 290 269 249 222 190 187 185 175 181 186 182 186 187 187 193 199 200 200 197 194 189 176 180 180 187 188 188 191 191 184 184 165 177 178 175 169 173 172 166 164 167 172 161 167 179 172 168 167 163 154 156 160 160 164 162 157 153 147 147 153 158 151 144 151 152 147 146
197 187 181 183 219 213 258 203 337 329 277 122 153 152 252 284 293 228 246 244 244 243 230 248 259 266 270 153 162 182 209 250 249 237 226 208 194 177 179 182 186 187 188 187 196 200 200 201 202 200 199 179 179 184 187 189 194 193 189 184 173 167 182 187 199 173 170 176 175 172 177 175 173 177 171 176 164 164 163 156 154 153 151 145 140 134 134 135 140 144 136 135 135 130 118 115 107
199 197 177 204 182 189 221 191 230 244 282 108 202 147 236 174 142 344 258 269 271 264 262 247 259 269 265 213 193 190 222 241 230 230 229 219 203 182 176 182 183 187 186 190 196 202 201 202 203 202 199 179 181 186 187 191 191 190 183 183 168 178 182 188 193 192 183 175 174 172 180 173 173 170 167 152 146 156 151 143 143 137 130 130 129 124 118 123 113 115 118 113 105 101 103 107 106
164 299 15 291 228 66 254 356 276 2 336 254 165 227 238 219 15 272 215 271 258 243 255 275 271 259 265 252 220 209 204 230 215 224 226 224 210 189 182 182 185 186 189 192 197 201 203 204 204 204 202 180 182 183 188 190 190 187 181 180 173 175 181 186 184 175 198 189 176 180 185 177 175 156 140 131 140 144 139 131 121 120 120 120 117 116 121 124 117 120 116 111 103 82 112 106 112
170 144 213 211 5 198 84 99 79 126 262 256 224 269 252 277 254 225 231 207 241 219 252 249 248 252 256 264 245 140 190 217 211 215 210 203 201 205 196 187 186 187 190 196 197 196 200 202 205 206 206 184 184 188 188 189 189 180 182 185 173 174 181 189 194 192 188 191 188 180 178 177 151 145 132 131 133 129 124 127 125 121 118 115 114 112 112 116 120 118 117 115 116 118 111 108 105
106 211 203 78 92 2 184 242 142 216 241 267 124 243 272 1 289 66 195 234 246 241 241 235 240 245 247 247 126 175 200 211 217 214 202 203 206 205 199 197 192 191 191 193 194 192 195 199 201 205 206 196 186 190 192 191 185 184 181 181 179 176 181 188 182 184 175 179 182 178 152 155 159 141 139 133 130 127 122 127 125 124 118 117 116 118 119 123 121 110 111 108 110 115 107 97 87
294 142 118 179 195 211 187 217 234 224 227 263 240 268 268 232 255 189 198 201 232 239 238 234 242 241 238 240 200 194 206 213 225 217 209 210 209 204 203 197 196 196 194 195 191 188 191 195 203 205 205 201 188 187 189 186 190 186 176 177 182 180 182 178 175 170 160 176 177 175 171 166 137 138 147 138 134 135 135 132 131 129 128 123 124 127 131 127 124 119 115 115 117 115 109 103 96
48 114 177 4 304 231 168 206 318 231 257 158 272 267 269 192 222 198 238 226 224 228 222 226 231 237 243 236 177 188 200 209 213 205 204 205 203 206 200 195 193 193 193 193 192 192 193 194 194 197 200 200 190 187 186 189 189 184 178 176 180 176 174 185 182 177 175 183 174 169 164 157 155 149 154 145 139 140 140 140 138 134 131 131 132 134 135 128 123 121 125 122 121 116 112 115 114
181 197 195 169 205 354 342 352 204 222 240 243 292 287 268 243 177 197 224 223 223 220 226 226 242 247 244 246 186 187 200 207 208 205 194 194 205 202 204 201 197 193 194 192 192 195 194 196 199 195 197 196 194 190 188 192 181 184 175 182 177 173 175 164 168 166 171 171 164 161 164 159 145 157 152 150 141 139 142 142 138 139 139 140 141 139 136 132 125 125 121 121 123 122 121 122 126
180 185 196 190 158 182 187 229 88 252 228 225 195 258 274 273 121 186 219 219 224 232 225 237 234 242 250 245 242 218 196 219 210 202 184 192 199 201 202 197 193 190 192 194 196 194 196 199 200 198 202 201 194 191 186 184 181 174 182 183 177 179 173 167 175 174 177 170 162 166 156 149 162 154 156 154 147 143 147 146 143 142 140 139 139 137 137 137 134 129 124 124 130 134 135 137 137